[[{"header":{"parameterUnit":"m.s-1","parameterCategory":1,"la1":30.2991,"la2":30.254,"lo1":-89.0895,"lo2":-89.0444,"dy":0.0017,"dx":0.0017,"nx":28,"ny":28,"refTime":"2024-09-27T09:00:00:Z","depth":0,"parameterNumber":2,"parameterNumberName":"U-component_of_WINDS"},"data":[0,0,0,0,0,0,0,0,0,0,0,0,0,0,0,0,0,0,0,0,0,0,0,0,0,0,0,0,0,0,0,0,0,0,0,0,0,0,0,0,0,0,0,0,0,0,0,0,0,0,0,0,0,0,0,0,0,0,7.3431,7.3432,0,7.3547,7.3548,7.3549,7.3474,7.347,7.3467,7.3464,7.3584,7.359,7.3597,0,0,0,0,0,0,0,0,0,0,0,0,0,7.3147,7.3153,7.3431,7.3432,7.3434,7.3547,7.3548,7.355,7.3475,7.347,7.3466,7.3462,7.3582,7.359,7.3597,0,0,0,0,0,0,0,0,0,0,0,0,0,7.3267,7.3154,7.3431,7.341,7.3409,7.3546,7.3548,7.355,7.3475,7.347,7.3465,7.346,7.3579,7.3589,7.3598,7.3763,0,0,7.3628,7.3632,0,0,0,0,0,0,0,0,7.3261,7.3278,7.3411,7.3412,7.3411,7.349,7.3492,7.3622,7.3477,7.345,7.3464,7.3457,7.3557,7.3568,7.3602,7.3769,7.3774,7.3629,7.3635,7.3639,7.3642,0,0,0,0,0,0,0,7.3252,7.3273,7.3477,7.3414,7.3413,7.3395,7.3407,7.3516,7.3532,7.3452,7.3447,7.3462,7.3556,7.3593,7.3604,7.3776,7.3629,7.3637,7.3643,7.3647,7.4085,7.4091,0,0,0,0,0,0,7.3246,7.3266,7.3473,7.348,7.3321,7.3405,7.3417,7.347,7.353,7.3534,7.3466,7.3458,7.3579,7.3593,7.3608,7.3805,7.3639,7.3648,7.3653,7.4079,7.4086,7.4093,0,0,0,0,0,0,7.324,7.3265,7.3468,7.3372,7.3396,7.3415,7.3475,7.3475,7.3512,7.3541,7.3543,7.35,7.3575,7.3594,7.3725,7.3808,7.3652,7.3661,7.4072,7.4081,7.4089,7.4201,0,0,0,0,0,0,7.3232,7.3263,7.3325,7.3374,7.3402,7.3583,7.348,7.3481,7.3528,7.3519,7.3574,7.3578,7.3572,7.3711,7.3735,7.3819,7.3669,7.4065,7.4076,7.4087,7.419,7.4213,7.4232,0,0,0,0,0,7.3222,7.3352,7.3329,7.3354,7.348,7.3588,7.3604,7.3595,7.3535,7.3598,7.3617,7.3576,7.3796,7.3725,7.3751,7.384,7.406,7.4073,7.4086,7.4181,7.4208,7.4232,0,0,0,0,0,0,7.3313,7.3358,7.3333,7.3482,7.3532,7.3575,7.3654,7.3624,7.3692,7.3681,7.3667,7.368,7.3817,7.3841,7.3762,7.4003,7.3918,7.3937,7.3982,7.4008,7.4029,7.402,7.3677,0,0,0,0,0,7.3351,7.3434,7.3469,7.3598,7.3624,7.3636,7.3682,7.3671,7.3722,7.3743,7.3771,7.3823,7.3904,7.3957,7.4033,7.4194,7.4205,7.4267,7.4288,7.4305,7.4322,7.441,7.4438,7.4136,7.4136,7.4135,0,0,7.3429,7.3464,7.3517,7.3617,7.3654,7.3742,7.3654,7.375,7.3815,7.3758,7.3883,7.3906,7.3963,7.411,7.4176,7.4134,7.4408,7.4322,7.4335,7.4343,7.4426,7.4455,7.448,7.4145,7.4143,7.4141,0,0,7.3616,7.3651,7.3762,7.3802,7.3859,7.3866,7.3893,7.3941,7.3954,7.408,7.4039,7.4117,7.4256,7.4298,7.4338,7.4544,7.4509,7.4569,7.4678,7.4764,7.4788,7.4809,7.4883,7.4909,7.4586,7.4586,7.4586,0,7.3706,7.3836,7.3823,7.3924,7.3969,7.3921,7.4034,7.4073,7.4153,7.4186,7.4138,7.4313,7.4348,7.4504,7.4555,7.4588,7.4619,7.4563,7.4785,7.4806,7.4826,7.4896,7.4924,7.4593,7.4592,7.4591,7.4591,0,7.3945,7.4036,7.4119,7.4197,7.4252,7.4358,7.4362,7.442,7.4404,7.4417,7.4546,7.4586,7.467,7.4706,7.4692,7.4862,7.4834,7.4787,7.4701,7.4862,7.4928,7.4954,7.4603,7.46,7.4598,7.4597,0,0,7.4192,7.4262,7.4293,7.4328,7.4389,7.4459,7.4564,7.4646,7.4696,7.4753,7.4841,7.496,7.4917,7.4962,7.4953,7.5028,7.5189,7.4971,7.4972,7.501,7.5379,7.5415,7.5446,7.5166,7.5171,7.5175,7.5374,0,7.4383,7.4565,7.4557,7.4727,7.4812,7.4768,7.486,7.4907,7.4922,7.4997,7.5013,7.5098,7.5034,7.5061,7.5134,7.5154,7.5263,7.514,7.5249,7.5253,7.5235,7.548,7.5518,7.5704,7.54,7.5404,7.5408,0,7.463,7.4695,7.4874,7.4923,7.4958,7.5041,7.5115,7.5187,7.5241,7.5246,7.5298,7.5276,7.5383,7.5296,7.5444,7.536,7.5404,7.5421,7.5428,7.5438,7.534,7.5497,7.5763,7.5791,7.5448,7.5445,7.5442,0,7.4793,7.4926,7.505,7.5082,7.5142,7.5201,7.5229,7.5277,7.5327,7.5393,7.5425,7.5503,7.5546,7.5607,7.5607,7.5543,7.5757,7.567,7.5766,7.5766,7.5812,7.5809,7.6089,7.5841,7.5841,7.584,7.584,0,7.5007,7.5119,7.5124,7.5201,7.5325,7.5315,7.5438,7.546,7.5504,7.5585,7.5552,7.5629,7.5625,7.5703,7.5704,7.5827,7.5847,7.5855,7.5854,7.5858,7.5857,7.5886,7.5873,7.5848,7.5846,7.5845,7.5843,0,7.521,7.5218,7.5351,7.5397,7.5412,7.5501,7.5541,7.5614,7.5626,7.5729,7.5753,7.5772,7.5862,7.5869,7.5974,7.5974,7.6124,7.6108,7.6105,7.6103,7.6198,7.6189,7.6507,7.6548,7.6273,7.6276,7.6278,0,7.5346,7.5431,7.5487,7.5538,7.5569,7.5653,7.5704,7.5698,7.5753,7.5821,7.5887,7.5974,7.6043,7.619,7.6213,7.6294,7.628,7.6386,7.6292,7.6294,7.6282,7.6277,7.6286,7.6404,7.6407,7.641,7.6412,0,7.5587,7.5587,7.5661,7.5738,7.58,7.586,7.5915,7.596,7.5961,7.6024,7.6116,7.617,7.6277,7.6364,7.6443,7.6472,7.6444,7.6441,7.6468,7.6472,7.6467,7.6472,7.6155,7.6434,7.6432,7.643,7.6429,7.6428,7.5761,7.5835,7.5885,7.597,7.6011,7.6064,7.6136,7.6157,7.6233,7.6319,7.6312,7.6414,7.6466,7.6569,7.6605,7.6685,7.6649,7.6688,7.6697,7.6707,7.6717,7.6455,7.6699,7.6699,7.6698,7.6698,7.6697,0,7.6001,7.6031,7.6109,7.6188,7.6255,7.6221,7.6281,7.634,7.6429,7.6481,7.655,7.6656,7.6741,7.6772,7.6855,7.6913,7.6902,7.6935,7.693,7.6938,7.6744,7.6713,7.6943,7.6943,7.6943,7.6942,7.6942,7.6942,7.6133,7.6256,7.6262,7.6406,7.6436,7.6535,7.6572,7.6622,7.6663,7.6782,7.6852,7.6872,7.6916,7.7002,7.7078,7.7085,7.7117,7.7156,7.7158,7.6976,7.6951,7.6928,7.6898,7.7163,7.7164,7.7345,7.7347,7.7348]},{"header":{"parameterUnit":"m.s-1","parameterCategory":1,"la1":30.2991,"la2":30.254,"lo1":-89.0895,"lo2":-89.0444,"dy":0.0017,"dx":0.0017,"nx":28,"ny":28,"refTime":"2024-09-27T09:00:00:Z","depth":0,"parameterNumber":3,"parameterNumberName":"V-component_of_WINDS"},"data":[0,0,0,0,0,0,0,0,0,0,0,0,0,0,0,0,0,0,0,0,0,0,0,0,0,0,0,0,0,0,0,0,0,0,0,0,0,0,0,0,0,0,0,0,0,0,0,0,0,0,0,0,0,0,0,0,0,0,1.6096,1.6097,0,1.6172,1.6173,1.6174,1.6197,1.6196,1.6196,1.6195,1.6274,1.6276,1.6278,0,0,0,0,0,0,0,0,0,0,0,0,0,1.5969,1.5972,1.6096,1.6097,1.6098,1.6172,1.6173,1.6174,1.6197,1.6196,1.6196,1.6195,1.6273,1.6276,1.6279,0,0,0,0,0,0,0,0,0,0,0,0,0,1.6033,1.5972,1.6096,1.6118,1.6121,1.6172,1.6173,1.6174,1.6197,1.6196,1.6196,1.6195,1.6272,1.6275,1.6279,1.6313,0,0,1.629,1.6292,0,0,0,0,0,0,0,0,1.6029,1.6037,1.6114,1.6117,1.612,1.6174,1.6157,1.6221,1.6197,1.6168,1.6195,1.6195,1.6241,1.6247,1.6263,1.6317,1.632,1.629,1.6293,1.6294,1.6295,0,0,0,0,0,0,0,1.6025,1.6034,1.6126,1.6115,1.6119,1.6124,1.6132,1.6169,1.6207,1.617,1.6172,1.6181,1.6243,1.6259,1.6265,1.6321,1.629,1.6294,1.6296,1.6297,1.6406,1.6407,0,0,0,0,0,0,1.6017,1.603,1.6124,1.6128,1.6072,1.6127,1.6136,1.6157,1.6206,1.6213,1.6181,1.6182,1.6253,1.626,1.6268,1.631,1.6294,1.6298,1.63,1.6406,1.6406,1.6407,0,0,0,0,0,0,1.6014,1.6025,1.6121,1.608,1.6093,1.613,1.6153,1.6159,1.6176,1.6215,1.6222,1.6192,1.6253,1.6262,1.6301,1.6313,1.6299,1.6303,1.6405,1.6406,1.6407,1.6396,0,0,0,0,0,0,1.601,1.6024,1.6037,1.608,1.6095,1.6154,1.6154,1.6161,1.6182,1.6183,1.6226,1.6233,1.6253,1.6296,1.6305,1.6318,1.6306,1.6404,1.6405,1.6407,1.6396,1.6397,1.6398,0,0,0,0,0,1.6005,1.6032,1.6038,1.6049,1.6113,1.6154,1.6162,1.6186,1.6183,1.6197,1.6222,1.6231,1.631,1.63,1.631,1.6324,1.6403,1.6405,1.6406,1.6395,1.6396,1.6398,0,0,0,0,0,0,1.5989,1.6038,1.6045,1.6086,1.6116,1.6158,1.6176,1.6187,1.6218,1.6218,1.6245,1.6255,1.6291,1.6312,1.6299,1.636,1.6357,1.6361,1.6345,1.6346,1.6347,1.6342,1.6309,0,0,0,0,0,1.5991,1.602,1.6061,1.6093,1.6107,1.6139,1.6158,1.6173,1.6205,1.6218,1.6246,1.6276,1.6308,1.6328,1.636,1.6399,1.6408,1.6413,1.6414,1.6415,1.6418,1.6439,1.6442,1.6412,1.6412,1.6412,0,0,1.5993,1.6023,1.6041,1.609,1.6115,1.6145,1.615,1.6181,1.6204,1.6223,1.6261,1.6283,1.6318,1.6357,1.6376,1.6375,1.6428,1.6417,1.6417,1.642,1.6441,1.6443,1.6446,1.6413,1.6413,1.6413,0,0,1.6014,1.604,1.6069,1.6093,1.6131,1.6152,1.6158,1.6199,1.6214,1.6252,1.6267,1.6294,1.6348,1.6373,1.6392,1.6421,1.643,1.643,1.6435,1.6455,1.6458,1.646,1.6469,1.6472,1.6433,1.6433,1.6433,0,1.6013,1.6058,1.6082,1.6113,1.6134,1.6152,1.6182,1.6204,1.625,1.6264,1.6263,1.6331,1.6356,1.64,1.6407,1.6423,1.6431,1.6425,1.6455,1.6458,1.646,1.6469,1.6473,1.6432,1.6432,1.6433,1.6433,0,1.6055,1.6086,1.6105,1.6148,1.6171,1.6201,1.6229,1.625,1.6263,1.6283,1.6322,1.6353,1.639,1.6402,1.6415,1.6448,1.6446,1.645,1.6448,1.6462,1.6471,1.6475,1.6432,1.6432,1.6432,1.6432,0,0,1.6068,1.6123,1.6129,1.6149,1.6191,1.6216,1.6246,1.6282,1.6299,1.6329,1.6355,1.64,1.6403,1.6425,1.6441,1.6459,1.6478,1.646,1.6462,1.6462,1.6515,1.6511,1.6515,1.6485,1.6485,1.6486,1.6512,0,1.6093,1.6148,1.617,1.6214,1.6243,1.626,1.6286,1.6314,1.6334,1.6361,1.6383,1.6414,1.6416,1.643,1.6448,1.6472,1.6489,1.647,1.6508,1.6509,1.6498,1.652,1.6517,1.654,1.6515,1.6516,1.6516,0,1.613,1.616,1.6207,1.6245,1.6258,1.6281,1.6315,1.6341,1.6373,1.6386,1.641,1.6425,1.6457,1.6452,1.6496,1.6483,1.6499,1.6513,1.6515,1.6519,1.6514,1.6524,1.6548,1.6551,1.6522,1.6522,1.6521,0,1.6134,1.6187,1.6221,1.6237,1.6282,1.6298,1.6317,1.6349,1.6369,1.6399,1.6412,1.6445,1.6464,1.6489,1.6512,1.6507,1.6553,1.6551,1.6564,1.6563,1.6573,1.6572,1.6599,1.6584,1.6584,1.6584,1.6584,0,1.6159,1.6187,1.6223,1.6245,1.6276,1.6301,1.6331,1.6352,1.6379,1.6404,1.6421,1.6445,1.6474,1.65,1.6518,1.6551,1.6559,1.657,1.6575,1.6569,1.6567,1.658,1.6579,1.6585,1.6585,1.6585,1.6584,0,1.6169,1.6195,1.6233,1.6272,1.6283,1.6304,1.6337,1.6358,1.6378,1.641,1.6419,1.645,1.6482,1.6508,1.655,1.6562,1.6596,1.6601,1.6585,1.6588,1.6599,1.6598,1.6635,1.6641,1.6622,1.6622,1.6623,0,1.6184,1.6206,1.6247,1.6265,1.6284,1.6313,1.6333,1.6358,1.6378,1.6416,1.6432,1.6465,1.6493,1.6544,1.657,1.6602,1.6608,1.6619,1.6613,1.6606,1.6607,1.6605,1.6607,1.6619,1.6619,1.6619,1.6619,0,1.6207,1.6218,1.6247,1.628,1.6303,1.6331,1.6358,1.6372,1.6401,1.6423,1.6456,1.6478,1.652,1.6553,1.6587,1.6607,1.6618,1.6621,1.6626,1.662,1.6609,1.6614,1.6587,1.662,1.662,1.662,1.662,1.662,1.6219,1.6239,1.6271,1.6302,1.6325,1.635,1.6371,1.6394,1.6422,1.6458,1.6471,1.6504,1.6535,1.6582,1.6602,1.6628,1.6629,1.6636,1.6638,1.6639,1.6638,1.6605,1.6635,1.6635,1.6635,1.6635,1.6635,0,1.6243,1.6264,1.6292,1.633,1.6354,1.6362,1.6392,1.6412,1.6441,1.6469,1.6496,1.6533,1.6564,1.6593,1.6625,1.6641,1.6647,1.6649,1.6648,1.6652,1.6636,1.6628,1.6643,1.6643,1.6643,1.6643,1.6643,1.6643,1.6258,1.6291,1.6306,1.6351,1.6372,1.6405,1.6421,1.6444,1.6466,1.6507,1.6533,1.6551,1.6579,1.6613,1.6642,1.665,1.6661,1.6661,1.667,1.6654,1.6653,1.6652,1.6645,1.6663,1.6663,1.6684,1.6684,1.6684]}]]